Regional Weather Roundup
Issued by NWS

Home | Current Version | Previous Version | Graphics & Text | Print | Product List | Glossary On
Versions: 1 2 3 4 5 6 7 8 9 10 11 12 13 14 15 16 17 18 19 20 21 22 23 24 25 26 27 28 29 30 31 32 33 34 35 36 37 38 39 40 41 42 43 44 45 46 47 48 49 50
000
ASUS45 KSLC 251110
RWRUT

UTAH REGIONAL WEATHER ROUNDUP
NATIONAL WEATHER SERVICE SALT LAKE CITY UT
500 AM MDT WED APR 25 2018

UTZ001>011-023>025-251200-

NORTHERN UTAH

CITY           SKY/WX    TMP DP  RH WIND       PRES   REMARKS
BRIGHAM CITY   CLEAR     45  24  44 NW7       30.25S
HILL AFB       CLEAR     45  21  38 E15G24    30.25S
LOGAN          CLEAR     37  28  70 SE3       30.28S
OGDEN          CLEAR     45  22  40 SW7       30.24S
SALT LAKE CITY CLEAR     49  28  44 S13       30.24S
TOOELE VALLEY  CLEAR     43  30  61 S13       30.24F
WENDOVER       PTCLDY    43  23  45 CALM      30.24S
HEBER CITY       N/A     27  21  80 CALM      30.32S
WEST JORDAN    CLEAR     42  29  59 SW6       30.27S

$$

UTZ011>015-024>027-251200-

CENTRAL/NORTHEAST UTAH

CITY           SKY/WX    TMP DP  RH WIND       PRES   REMARKS
PROVO AIRPORT  CLEAR     39  32  76 S3        30.27F
MOAB/CANYONLAN CLEAR     46  18  32 E13       30.28S
DELTA          CLEAR     43  30  61 CALM      30.25S
PRICE          PTCLDY    39  19  44 N5        30.31S
RICHFIELD      CLEAR     32  21  64 CALM      30.30R
ROOSEVELT      CLEAR     30  21  69 W3        30.41F
VERNAL         CLEAR     34  21  59 CALM      30.39S

$$

UTZ013>016-019>022-027-251200-

SOUTHERN UTAH

CITY           SKY/WX    TMP DP  RH WIND       PRES   REMARKS
BRYCE CANYON   PTCLDY    27  17  66 W6        30.32S WCI  20
CEDAR CITY     CLEAR     38  26  62 S3        30.24S
MILFORD        CLEAR     35  25  66 MISG      30.24F
ST GEORGE      SUNNY     64  21  19 N7        30.12R
HANKSVILLE     CLEAR     45  18  33 N3        30.32S
KANAB          CLEAR     48  21  34 N12       30.25R
BLANDING         N/A     38  10  31 NW6       30.31S WCI  34

$$

REGIONAL REPORTS     COLORADO/ARIZONA

CITY           SKY/WX    TMP DP  RH WIND       PRES   REMARKS
CRAIG, CO      CLEAR     21  17  84 CALM      30.41S
GRAND JUNCTION CLEAR     41  18  39 CALM      30.33S
RIFLE, CO      CLEAR     31  23  72 CALM      30.38S
MONTROSE, CO   CLEAR     31  20  63 SE5       30.37S WCI  26
CORTEZ, CO     CLEAR     36  10  34 CALM      30.22S
COLORADO CITY    N/A     46  23  39 CALM      30.21S
PAGE, AZ       CLEAR     60  18  19 N5        30.19R
GRAND CANYON   CLEAR     53  18  25 E12       30.24S
KINGMAN, AZ    CLEAR     56  19  23 S3        30.04S
FLAGSTAFF, AZ  CLEAR     51  19  28 NE14      30.25S

$$

REGIONAL REPORTS    NEVADA/IDAHO/WYOMING

CITY           SKY/WX    TMP DP  RH WIND       PRES   REMARKS
LAS VEGAS, NV  PTCLDY    73  25  16 NE12      29.99R
ELY, NY        CLEAR     30  14  51 S10       30.29S WCI  21
ELKO, NV       CLEAR     34  24  67 CALM      30.22S
POCATELLO, ID  CLEAR     33  29  85 N5        30.27S WCI  29
BURLEY, ID     CLEAR     34  30  85 CALM      30.22S
EVANSTON, WY   CLEAR     30  19  63 E7        30.34F WCI  23
ROCK SPRINGS,  CLEAR     25  17  72 SE9       30.38F WCI  15
KEMMERER, WY   CLEAR     27  19  74 N9        30.37F WCI  17

$$



USA.gov is the U.S. government's official web portal to all federal, state and local government web resources and services.